Location: Stoke Bliss
(52.2667°N, 2.5167°W)
Time: 15:42:13
(UTC+00:00)

Meteor 2-4 Rocket - Visible Passes

Search period start: 24 June 2021 00:00
Search period end: 04 July 2021 00:00
Orbit: 799 x 909 km, 81.2° (Epoch: 24 June)

Date Brightness Start Highest point End Pass type
(mag) Time Alt. Az. Time Alt. Az. Time Alt. Az.
25 Jun 6.5 02:52:17 10° N 02:56:30 21° ENE 03:00:49 10° ESE visible
26 Jun 6.5 02:41:14 10° N 02:45:23 20° ENE 02:49:34 10° ESE visible
27 Jun 6.5 02:30:12 10° N 02:34:14 20° ENE 02:38:20 10° ESE visible
28 Jun 6.5 02:19:10 10° NNE 02:23:06 19° NE 02:27:04 10° E visible
29 Jun 6.5 02:08:08 10° NNE 02:11:57 18° NE 02:15:49 10° E visible
30 Jun 6.5 01:57:07 10° NNE 02:00:49 17° NE 02:04:33 10° E visible
01 Jul 6.5 01:46:07 10° NNE 01:49:40 17° NE 01:53:16 10° E visible
02 Jul 6.5 01:35:06 10° NNE 01:38:31 16° NE 01:41:59 10° E visible
03 Jul 6.5 01:24:06 10° NNE 01:27:22 15° NE 01:30:41 10° E visible
03 Jul 4.3 03:05:47 10° N 03:11:32 67° ENE 03:17:23 10° SSE visible
